Weather History for Whiteville, NC

Change the Weather History Date:

Thursday, February 28, 2013

  Actual Average (KLBT) Record (KLBT)
Temperature  
Mean Temperature 45 °F 50 °F  
Max Temperature 54 °F 62 °F 83 °F (2011)
Min Temperature 36 °F 38 °F 19 °F (2002)
Degree Days  
Heating Degree Days 20 15  
Month to date heating degree days 511  
Since 1 July heating degree days 2230  
Cooling Degree Days 0 0  
Month to date cooling degree days 2  
Year to date cooling degree days 3  
Moisture  
Dew Point 35 °F    
Average Humidity 65    
Maximum Humidity 87    
Minimum Humidity 39    
Precipitation  
Precipitation 0.00 in 0.11 in 0.74 in (2011)
Month to date precipitation 2.90  
Year to date precipitation 5.87  
Sea Level Pressure  
Sea Level Pressure 29.79 in    
Wind  
Wind Speed 5 mph (WSW)    
Max Wind Speed 12 mph    
Max Gust Speed 20 mph    
Visibility 10 miles    
Events      
T = Trace of Precipitation, MM = Missing Value Source: NWS Daily Summary

Daily Weather History Graph

Daily Weather History Graph

Search for Another Location

Airport:

Trip Planner

Search our weather history database for the weather conditions in past years. The results will help you decide how hot, cold, wet, or windy it might be!

Date:

Astronomy

Feb. 28, 2013 Rise Set
Actual Time 6:44 AM EST 6:10 PM EST
Civil Twilight 6:19 AM EST 6:35 PM EST
Nautical Twilight 5:50 AM EST 7:04 PM EST
Astronomical Twilight 5:21 AM EST 7:33 PM EST
Moon 9:23 PM EST (2/28) 8:03 AM EST (2/28)
Length of Visible Light 12h 16m
Length of Day
11h 25m
Waning Gibbous, 91% of the Moon is Illuminated
Feb 28
Waning Gibbous
Mar 4
Last Quarter
Mar 11
New
Mar 19
First Quarter
Mar 27
Full

Hourly Weather History & Observations

Time (EST) Temp. Windchill Dew Point Humidity Pressure Visibility Wind Dir Wind Speed Gust Speed Precip Events Conditions
12:15 AM 45.0 °F 41.2 °F 41.0 °F 86% 29.77 in 10.0 mi SSW 6.9 mph - N/A   Clear
12:35 AM 45.7 °F 42.0 °F 41.2 °F 84% 29.77 in 10.0 mi SW 6.9 mph - N/A   Clear
12:55 AM 46.2 °F 42.7 °F 41.0 °F 82% 29.77 in 10.0 mi SSW 6.9 mph - N/A   Clear
1:15 AM 45.5 °F 41.8 °F 41.2 °F 85% 29.77 in 10.0 mi SSW 6.9 mph - N/A   Clear
1:35 AM 46.2 °F 42.7 °F 41.0 °F 82% 29.77 in 10.0 mi SW 6.9 mph - N/A   Clear
2:15 AM 45.7 °F 42.7 °F 40.8 °F 83% 29.76 in 10.0 mi SW 5.8 mph - N/A   Clear
2:35 AM 45.3 °F 43.0 °F 40.6 °F 84% 29.76 in 10.0 mi SW 4.6 mph - N/A   Clear
2:55 AM 45.0 °F 41.8 °F 40.6 °F 85% 29.76 in 10.0 mi SW 5.8 mph - N/A   Clear
3:15 AM 44.8 °F 41.6 °F 40.5 °F 85% 29.75 in 10.0 mi SW 5.8 mph - N/A   Clear
3:35 AM 44.6 °F 41.4 °F 40.5 °F 85% 29.75 in 10.0 mi SW 5.8 mph - N/A   Clear
3:55 AM 44.6 °F 41.4 °F 40.3 °F 85% 29.75 in 10.0 mi SW 5.8 mph - N/A   Clear
4:15 AM 44.6 °F 41.4 °F 40.3 °F 85% 29.75 in 10.0 mi SW 5.8 mph - N/A   Clear
4:35 AM 44.6 °F 40.7 °F 40.1 °F 84% 29.76 in 10.0 mi SW 6.9 mph - N/A   Clear
4:55 AM 44.4 °F 42.0 °F 39.7 °F 84% 29.76 in 10.0 mi SW 4.6 mph - N/A   Clear
5:35 AM 43.9 °F 41.3 °F 39.2 °F 84% 29.77 in 10.0 mi SW 4.6 mph - N/A   Clear
5:55 AM 43.9 °F - 39.0 °F 83% 29.77 in 10.0 mi Calm Calm - N/A   Clear
6:15 AM 43.0 °F 41.3 °F 38.7 °F 85% 29.78 in 10.0 mi SW 3.5 mph - N/A   Clear
6:35 AM 42.8 °F 41.1 °F 38.8 °F 86% 29.77 in 10.0 mi SW 3.5 mph - N/A   Clear
6:55 AM 43.0 °F 40.3 °F 38.7 °F 85% 29.78 in 10.0 mi SW 4.6 mph - N/A   Clear
7:15 AM 43.2 °F 41.5 °F 38.7 °F 84% 29.78 in 10.0 mi SW 3.5 mph - N/A   Clear
7:35 AM 44.6 °F 42.2 °F 39.0 °F 81% 29.78 in 10.0 mi SW 4.6 mph - N/A   Clear
7:55 AM 45.5 °F 43.2 °F 38.5 °F 76% 29.80 in 10.0 mi WSW 4.6 mph - N/A   Clear
8:15 AM 46.4 °F 45.2 °F 38.3 °F 73% 29.80 in 10.0 mi WSW 3.5 mph - N/A   Clear
8:35 AM 47.5 °F - 37.9 °F 69% 29.80 in 10.0 mi WSW 4.6 mph - N/A   Clear
8:55 AM 48.4 °F - 36.3 °F 63% 29.80 in 10.0 mi SW 9.2 mph - N/A   Clear
9:15 AM 49.5 °F - 35.6 °F 59% 29.80 in 10.0 mi West 8.1 mph 16.1 mph N/A   Clear
9:35 AM 50.4 °F - 34.9 °F 55% 29.80 in 10.0 mi West 10.4 mph 17.3 mph N/A   Clear
9:55 AM 51.3 °F - 34.3 °F 52% 29.79 in 10.0 mi WSW 8.1 mph - N/A   Clear
10:15 AM 50.9 °F - 32.0 °F 48% 29.78 in 10.0 mi WSW 6.9 mph 16.1 mph N/A   Scattered Clouds
10:35 AM 50.9 °F - 32.0 °F 48% 29.78 in 10.0 mi West 11.5 mph 19.6 mph N/A   Scattered Clouds
10:55 AM 51.8 °F - 32.2 °F 47% 29.78 in 10.0 mi West 6.9 mph 16.1 mph N/A   Mostly Cloudy
11:15 AM 50.4 °F - 32.4 °F 50% 29.78 in 10.0 mi West 10.4 mph 18.4 mph N/A   Scattered Clouds
11:35 AM 51.1 °F - 32.4 °F 49% 29.77 in 10.0 mi WSW 6.9 mph - N/A   Scattered Clouds
11:55 AM 50.9 °F - 32.0 °F 48% 29.77 in 10.0 mi West 6.9 mph - N/A   Scattered Clouds
12:15 PM 52.3 °F - 31.3 °F 45% 29.77 in 10.0 mi WSW 6.9 mph - N/A   Scattered Clouds
12:55 PM 52.9 °F - 31.3 °F 44% 29.75 in 10.0 mi West 5.8 mph - N/A   Scattered Clouds
1:15 PM 52.9 °F - 30.9 °F 43% 29.75 in 10.0 mi West 11.5 mph - N/A   Scattered Clouds
1:35 PM 52.7 °F - 30.9 °F 43% 29.75 in 10.0 mi West 10.4 mph 18.4 mph N/A   Scattered Clouds
1:55 PM 53.1 °F - 31.3 °F 43% 29.75 in 10.0 mi West 8.1 mph - N/A   Scattered Clouds
2:15 PM 52.3 °F - 31.1 °F 44% 29.75 in 10.0 mi WNW 6.9 mph - N/A   Scattered Clouds
2:35 PM 52.3 °F - 31.5 °F 45% 29.75 in 10.0 mi West 6.9 mph - N/A   Scattered Clouds
2:55 PM 53.2 °F - 29.8 °F 41% 29.75 in 10.0 mi WNW 4.6 mph - N/A   Scattered Clouds
3:15 PM 52.9 °F - 28.9 °F 40% 29.76 in 10.0 mi West 9.2 mph 18.4 mph N/A   Scattered Clouds
3:35 PM 53.2 °F - 28.8 °F 39% 29.76 in 10.0 mi West 8.1 mph - N/A   Scattered Clouds
3:55 PM 52.3 °F - 29.5 °F 42% 29.77 in 10.0 mi West 4.6 mph - N/A   Scattered Clouds
4:15 PM 51.4 °F - 28.8 °F 42% 29.77 in 10.0 mi West 8.1 mph 16.1 mph N/A   Scattered Clouds
4:35 PM 51.3 °F - 29.8 °F 44% 29.77 in 10.0 mi WNW 5.8 mph - N/A   Scattered Clouds
4:55 PM 51.1 °F - 29.5 °F 43% 29.78 in 10.0 mi West 3.5 mph - N/A   Scattered Clouds
5:15 PM 50.7 °F - 29.8 °F 45% 29.79 in 10.0 mi WNW 5.8 mph - N/A   Mostly Cloudy
5:35 PM 50.0 °F - 30.7 °F 48% 29.80 in 10.0 mi WNW 4.6 mph - N/A   Mostly Cloudy
5:55 PM 49.5 °F - 30.7 °F 49% 29.80 in 10.0 mi NW 3.5 mph - N/A   Overcast
6:15 PM 48.6 °F - 29.8 °F 48% 29.81 in 10.0 mi Calm Calm - N/A   Scattered Clouds
6:35 PM 47.5 °F - 30.9 °F 53% 29.82 in 10.0 mi Calm Calm - N/A   Clear
6:55 PM 46.6 °F - 31.5 °F 56% 29.83 in 10.0 mi Calm Calm - N/A   Clear
7:15 PM 45.0 °F - 32.4 °F 61% 29.83 in 10.0 mi Calm Calm - N/A   Clear
7:35 PM 43.3 °F - 32.0 °F 64% 29.84 in 10.0 mi Calm Calm - N/A   Clear
7:55 PM 42.4 °F - 32.7 °F 68% 29.85 in 10.0 mi Calm Calm - N/A   Clear
8:15 PM 41.7 °F - 32.0 °F 68% 29.84 in 10.0 mi Calm Calm - N/A   Clear
8:35 PM 40.8 °F - 31.8 °F 70% 29.85 in 10.0 mi Calm Calm - N/A   Clear
8:55 PM 41.0 °F - 32.0 °F 70% 29.85 in 10.0 mi Calm Calm - N/A   Clear
9:15 PM 39.4 °F - 32.0 °F 75% 29.86 in 10.0 mi Calm Calm - N/A   Clear
9:35 PM 38.8 °F - 32.0 °F 76% 29.85 in 10.0 mi Calm Calm - N/A   Clear
10:15 PM 38.3 °F - 32.0 °F 78% 29.87 in 10.0 mi Calm Calm - N/A   Clear
10:35 PM 38.3 °F - 34.0 °F 84% 29.87 in 10.0 mi Calm Calm - N/A   Clear
10:55 PM 37.6 °F - 33.6 °F 86% 29.86 in 10.0 mi Calm Calm - N/A   Clear
11:15 PM 37.0 °F - 33.4 °F 87% 29.87 in 10.0 mi Calm Calm - N/A   Clear
11:55 PM 36.5 °F - 32.9 °F 87% 29.86 in 10.0 mi Calm Calm - N/A   Clear